Weather History for Abingdon, VA

Change the Weather History Date:

Wednesday, April 9, 2014

  Actual Average (KTRI) Record (KTRI)
Temperature  
Mean Temperature 52 °F 53 °F  
Max Temperature 61 °F 66 °F 83 °F (1942)
Min Temperature 43 °F 41 °F 22 °F (2007)
Degree Days  
Heating Degree Days 12 12  
Month to date heating degree days 116  
Since 1 July heating degree days 4066  
Cooling Degree Days 0 0  
Month to date cooling degree days 0  
Year to date cooling degree days 1  
Growing Degree Days 2 (Base 50)    
Moisture  
Dew Point 33 °F    
Average Humidity 52    
Maximum Humidity 82    
Minimum Humidity 26    
Precipitation  
Precipitation 0.00 in 0.12 in 0.71 in (1961)
Month to date precipitation 0.98  
Year to date precipitation 11.24  
Snow  
Snow 0.00 in 0.00 in - ()
Month to date snowfall 0.4  
Since 1 July snowfall 12.6  
Snow Depth -    
Sea Level Pressure  
Sea Level Pressure 29.95 in    
Wind  
Wind Speed 6 mph (NNW)    
Max Wind Speed 17 mph    
Max Gust Speed 24 mph    
Visibility 10 miles    
Events Rain    
T = Trace of Precipitation, MM = Missing Value Source: NWS Daily Summary

Daily Weather History Graph

Daily Weather History Graph

Search for Another Location

Airport:

Trip Planner

Search our weather history database for the weather conditions in past years. The results will help you decide how hot, cold, wet, or windy it might be!

Date:

Astronomy

Apr. 09, 2014 Rise Set
Actual Time 7:02 AM EDT 7:57 PM EDT
Civil Twilight 6:36 AM EDT 8:23 PM EDT
Nautical Twilight 6:05 AM EDT 8:55 PM EDT
Astronomical Twilight 5:32 AM EDT 9:27 PM EDT
Moon 2:52 PM EDT (4/9) 3:42 AM EDT (4/9)
Length of Visible Light 13h 47m
Length of Day
12h 54m
Waxing Gibbous, 71% of the Moon is Illuminated
Apr 9
Waxing Gibbous
Apr 15
Full
Apr 22
Last Quarter
Apr 29
New
May 6
First Quarter

Hourly Weather History & Observations

Time (EDT) Temp. Dew Point Humidity Pressure Visibility Wind Dir Wind Speed Gust Speed Precip Events Conditions
12:15 AM 48.7 °F 41.0 °F 75% 29.77 in 10.0 mi Calm Calm - N/A   Overcast
12:35 AM 48.6 °F 40.3 °F 73% 29.78 in 10.0 mi Calm Calm - N/A   Overcast
12:55 AM 48.6 °F 40.8 °F 75% 29.78 in 10.0 mi Calm Calm - N/A   Overcast
1:15 AM 48.6 °F 40.5 °F 74% 29.78 in 10.0 mi NNW 3.5 mph - N/A   Overcast
1:35 AM 50.2 °F 36.9 °F 60% 29.78 in 10.0 mi NNW 5.8 mph - N/A   Overcast
1:55 AM 51.4 °F 35.1 °F 54% 29.78 in 10.0 mi North 6.9 mph - N/A   Overcast
2:15 AM 52.0 °F 35.6 °F 54% 29.78 in 10.0 mi North 5.8 mph - N/A   Overcast
2:35 AM 51.1 °F 36.7 °F 58% 29.78 in 10.0 mi North 5.8 mph - N/A   Light Drizzle
2:55 AM 51.4 °F 36.5 °F 57% 29.78 in 10.0 mi North 5.8 mph - N/A   Overcast
3:15 AM 51.1 °F 36.5 °F 57% 29.78 in 10.0 mi North 5.8 mph - N/A   Overcast
3:35 AM 50.9 °F 36.7 °F 58% 29.78 in 10.0 mi North 5.8 mph - N/A   Mostly Cloudy
3:55 AM 50.2 °F 37.0 °F 61% 29.79 in 10.0 mi North 4.6 mph - N/A   Scattered Clouds
4:15 AM 49.6 °F 37.4 °F 63% 29.80 in 10.0 mi NW 3.5 mph - N/A   Scattered Clouds
4:35 AM 49.1 °F 37.6 °F 64% 29.80 in 10.0 mi NW 4.6 mph - N/A   Mostly Cloudy
4:55 AM 48.6 °F 37.4 °F 65% 29.80 in 10.0 mi NW 3.5 mph - N/A   Mostly Cloudy
5:15 AM 49.3 °F 38.1 °F 65% 29.81 in 10.0 mi NNW 8.1 mph - N/A   Mostly Cloudy
5:35 AM 49.3 °F 38.1 °F 65% 29.82 in 10.0 mi NW 5.8 mph - N/A   Overcast
5:55 AM 48.6 °F 37.9 °F 67% 29.83 in 10.0 mi NW 6.9 mph - N/A   Mostly Cloudy
6:15 AM 48.2 °F 38.3 °F 69% 29.84 in 10.0 mi NW 6.9 mph - N/A   Mostly Cloudy
6:35 AM 48.2 °F 38.8 °F 70% 29.85 in 10.0 mi NNW 4.6 mph - N/A   Overcast
6:55 AM 48.4 °F 39.9 °F 73% 29.86 in 10.0 mi NNW 8.1 mph - N/A   Overcast
7:15 AM 48.4 °F 40.1 °F 73% 29.88 in 10.0 mi NNW 5.8 mph - N/A   Overcast
7:35 AM 48.4 °F 40.5 °F 74% 29.89 in 10.0 mi NW 4.6 mph - N/A   Overcast
7:55 AM 48.6 °F 40.8 °F 75% 29.90 in 10.0 mi Calm Calm - N/A   Overcast
8:15 AM 48.7 °F 41.2 °F 75% 29.91 in 10.0 mi NNW 6.9 mph - N/A Rain Light Rain
8:35 AM 47.8 °F 41.5 °F 79% 29.92 in 10.0 mi WNW 5.8 mph - N/A   Light Drizzle
8:55 AM 47.8 °F 41.9 °F 80% 29.93 in 10.0 mi NW 4.6 mph - N/A Rain Light Rain
9:20 AM 47.7 °F 41.7 °F 80% 29.94 in 10.0 mi NNW 8.1 mph - N/A   Overcast
9:35 AM 47.1 °F 41.9 °F 82% 29.95 in 5.0 mi NW 8.1 mph - N/A Rain Light Rain
9:55 AM 47.3 °F 41.7 °F 81% 29.95 in 10.0 mi NNW 6.9 mph - N/A   Overcast
10:15 AM 48.6 °F 41.9 °F 78% 29.96 in 10.0 mi NW 10.4 mph - N/A   Overcast
10:35 AM 50.0 °F 41.4 °F 72% 29.97 in 10.0 mi North 10.4 mph 17.3 mph N/A   Mostly Cloudy
10:55 AM 51.4 °F 40.5 °F 66% 29.98 in 10.0 mi North 9.2 mph 19.6 mph N/A   Scattered Clouds
11:15 AM 51.8 °F 39.6 °F 63% 29.99 in 10.0 mi NW 8.1 mph - N/A   Mostly Cloudy
11:35 AM 52.0 °F 36.5 °F 56% 29.99 in 10.0 mi NNW 9.2 mph 19.6 mph N/A   Overcast
11:55 AM 52.2 °F 37.8 °F 58% 30.00 in 10.0 mi NNW 11.5 mph 18.4 mph N/A   Mostly Cloudy
12:35 PM 55.2 °F 34.2 °F 45% 30.00 in 10.0 mi NW 11.5 mph 21.9 mph N/A   Overcast
12:55 PM 54.9 °F 30.9 °F 40% 30.00 in 10.0 mi NNW 17.3 mph 24.2 mph N/A   Overcast
1:15 PM 56.5 °F 31.6 °F 39% 30.00 in 10.0 mi NNW 10.4 mph 17.3 mph N/A   Mostly Cloudy
1:35 PM 56.5 °F 29.7 °F 36% 30.00 in 10.0 mi North 9.2 mph 17.3 mph N/A   Scattered Clouds
1:55 PM 56.7 °F 27.5 °F 33% 30.00 in 10.0 mi North 10.4 mph 16.1 mph N/A   Scattered Clouds
2:15 PM 57.4 °F 28.0 °F 33% 30.00 in 10.0 mi NNW 11.5 mph 17.3 mph N/A   Scattered Clouds
2:35 PM 58.6 °F 27.9 °F 31% 30.00 in 10.0 mi WNW 15.0 mph 21.9 mph N/A   Mostly Cloudy
2:55 PM 57.4 °F 27.0 °F 31% 30.01 in 10.0 mi NW 15.0 mph 19.6 mph N/A   Scattered Clouds
3:15 PM 57.6 °F 28.0 °F 32% 30.01 in 10.0 mi NNW 8.1 mph 18.4 mph N/A   Mostly Cloudy
3:35 PM 59.0 °F 27.0 °F 29% 30.00 in 10.0 mi NW 12.7 mph - N/A   Mostly Cloudy
3:55 PM 59.9 °F 27.3 °F 29% 30.00 in 10.0 mi NW 13.8 mph 19.6 mph N/A   Scattered Clouds
4:15 PM 60.4 °F 27.9 °F 29% 30.00 in 10.0 mi NW 12.7 mph 23.0 mph N/A   Scattered Clouds
4:35 PM 59.9 °F 27.0 °F 29% 30.00 in 10.0 mi NNW 15.0 mph 19.6 mph N/A   Scattered Clouds
4:55 PM 59.9 °F 25.9 °F 27% 30.00 in 10.0 mi NNW 10.4 mph 17.3 mph N/A   Scattered Clouds
5:15 PM 61.2 °F 26.1 °F 26% 30.01 in 10.0 mi WNW 12.7 mph 17.3 mph N/A   Mostly Cloudy
5:35 PM 59.9 °F 25.9 °F 27% 30.01 in 10.0 mi NNW 10.4 mph 19.6 mph N/A   Scattered Clouds
5:55 PM 58.6 °F 24.6 °F 27% 30.02 in 10.0 mi NNW 13.8 mph 20.7 mph N/A   Mostly Cloudy
6:15 PM 59.2 °F 24.3 °F 26% 30.02 in 10.0 mi NNW 6.9 mph 10.4 mph N/A   Scattered Clouds
6:35 PM 59.2 °F 24.6 °F 27% 30.02 in 10.0 mi NNW 5.8 mph 17.3 mph N/A   Scattered Clouds
6:55 PM 58.5 °F 24.6 °F 27% 30.03 in 10.0 mi NNW 11.5 mph - N/A   Scattered Clouds
7:15 PM 58.1 °F 23.9 °F 27% 30.03 in 10.0 mi NNW 8.1 mph 17.3 mph N/A   Scattered Clouds
7:35 PM 57.6 °F 23.9 °F 27% 30.04 in 10.0 mi NNW 6.9 mph - N/A   Clear
7:55 PM 56.7 °F 24.4 °F 29% 30.05 in 10.0 mi NNW 10.4 mph - N/A   Mostly Cloudy
8:15 PM 56.5 °F 23.7 °F 28% 30.06 in 10.0 mi NNW 5.8 mph - N/A   Scattered Clouds
8:35 PM 55.4 °F 23.9 °F 30% 30.06 in 10.0 mi NNW 5.8 mph - N/A   Scattered Clouds
8:55 PM 54.9 °F 24.4 °F 31% 30.07 in 10.0 mi NNW 5.8 mph - N/A   Scattered Clouds
9:15 PM 54.0 °F 24.8 °F 32% 30.08 in 10.0 mi NNW 4.6 mph - N/A   Clear
9:35 PM 52.0 °F 26.6 °F 37% 30.09 in 10.0 mi NW 3.5 mph - N/A   Clear
9:55 PM 50.5 °F 27.7 °F 41% 30.10 in 10.0 mi NNW 3.5 mph - N/A   Clear
10:15 PM 47.3 °F 29.8 °F 51% 30.11 in 10.0 mi NNW 3.5 mph - N/A   Clear
10:35 PM 48.6 °F 28.8 °F 46% 30.12 in 10.0 mi NNW 4.6 mph - N/A   Clear
10:55 PM 46.9 °F 29.7 °F 51% 30.12 in 10.0 mi NNW 4.6 mph - N/A   Clear
11:15 PM 46.8 °F 29.3 °F 51% 30.12 in 10.0 mi NNW 3.5 mph - N/A   Clear
11:35 PM 44.8 °F 30.7 °F 58% 30.13 in 10.0 mi Calm Calm - N/A   Clear
11:55 PM 43.7 °F 31.1 °F 61% 30.13 in 10.0 mi Calm Calm - N/A   Clear